Location: Kerviny
(48.0565°N, 4.3825°W)
Time: 22:07:56
(UTC+00:00)

Daily predictions for brighter satellites

Satellite Brightness Start Highest point End
(mag) Time Altitude Azimuth Time Altitude Azimuth Time Altitude Azimuth
CREW DRAGON DEMO-1 DEB 3.0 18:38:01 10° WNW 18:41:01 62° NNE 18:44:02 10° E
CZ-4B R/B 4.1 18:39:38 10° N 18:42:33 26° WNW 18:45:28 10° SW
Cosmos 1536 Rocket 4.3 18:39:34 10° N 18:43:40 34° ENE 18:47:45 10° SE
Cosmos 1125 Rocket 4.3 18:41:50 10° SSE 18:46:26 31° E 18:51:03 10° NE
SJ-6B 4.5 18:48:46 10° E 18:51:02 15° ENE 18:53:19 10° NNE
CZ-2D R/B 3.8 18:49:07 10° S 18:52:59 65° W 18:56:51 10° NNW
CZ-4 R/B 1.6 18:48:50 10° S 18:53:03 81° WSW 18:57:14 10° NNW
Cosmos 2150 Rocket 4.3 18:48:01 10° S 18:53:13 51° ESE 18:58:31 10° NNE
USA 238 DEB 3.9 18:46:05 10° NW 18:53:19 85° NE 19:00:51 10° SE
USA 238 3.9 18:46:12 10° NW 18:53:26 84° NE 19:00:57 10° SE
SJ-11-01 4.4 18:49:34 10° SSE 18:54:09 55° ENE 18:58:45 10° N
Cosmos 1464 Rocket 4.0 18:49:03 10° S 18:55:02 59° E 19:01:07 10° NNE
CZ-2C R/B 3.2 18:49:51 10° SSE 18:55:13 71° ENE 19:00:53 10° N
Cosmos 1782 Rocket 4.3 18:51:32 10° SSW 18:55:54 59° WNW 19:00:20 10° N
Cosmos 1674 3.7 18:52:40 10° NNE 18:56:02 28° ENE 18:59:23 10° SE
Okean-O 3.1 18:52:31 10° S 18:56:55 66° WSW 19:01:21 10° NNW
MOS 1 Rocket 3.5 18:59:06 10° NNE 19:03:13 39° E 19:07:13 10° SSE
FREGAT/IRIS 4.4 19:04:41 12° ENE 19:04:41 12° ENE 19:05:47 10° NE
In-Cosmos 22 4.1 19:04:58 10° N 19:10:20 84° E 19:15:44 10° SSE
ARGOS 3.2 19:05:36 10° SSE 19:10:50 58° ENE 19:16:08 10° N
Cosmos 1048 Rocket 4.1 19:05:57 10° NNW 19:11:19 88° ENE 19:16:42 10° SSE
CZ-2C R/B 3.5 19:08:35 10° NE 19:13:23 29° E 19:18:13 10° SSE
Cosmos 1733 4.4 19:13:48 13° SE 19:16:07 21° E 19:19:05 10° NE
Cosmos 2151 Rocket 3.6 19:12:19 10° S 19:16:44 66° E 19:21:13 10° NNE
Lacrosse 5 rocket 3.2 19:13:17 10° NW 19:16:56 25° N 19:20:42 10° ENE
HJ-1C 3.3 19:14:24 10° SSE 19:17:41 90° WSW 19:21:02 10° NNW
NOSS 3-2 (A) 4.3 19:10:16 10° NW 19:17:45 72° SW 19:26:10 10° SSE
DMSP B5D1-3 4.4 19:12:59 10° NNE 19:18:07 81° ESE 19:23:13 10° SSW
Cosmos 2082 Rocket 3.8 19:14:25 10° N 19:18:25 19° NE 19:21:17 14° ENE
NOSS 2-2 (C) 4.4 19:15:10 10° WSW 19:18:34 41° NW 19:22:27 10° NNE
BREEZE-M DEB (TANK) 3.2 19:18:22 10° W 19:21:13 52° SSW 19:27:36 13° SE
Cosmos 1891 Rocket 4.5 19:15:08 10° S 19:21:14 86° W 19:27:19 10° N
BREEZE-M R/B 4.4 19:08:42 10° WSW 19:21:55 63° SSE 19:24:25 19° E
Cosmos 494 Rocket 4.0 19:18:49 10° NNW 19:24:07 76° ENE 19:29:23 10° SSE
ATLAS 5 CENTAUR R/B 4.3 19:22:34 10° WNW 19:25:40 29° SW 19:33:26 10° SSE
Meteor 1-15 Rocket 4.3 19:21:54 10° S 19:27:25 58° E 19:33:05 10° NNE
Cosmos 1805 3.6 19:24:14 10° SSE 19:27:54 40° E 19:31:35 10° NNE
OBJECT-B 2.4 19:28:48 19° ENE 19:28:48 19° ENE 19:30:58 10° NNE
Milstar 3 Cent rocket 4.4 19:27:25 10° SSW 19:29:34 11° S 19:31:26 10° SSE
SL-08 RB Rocket 3.7 19:28:12 10° SSE 19:32:43 63° ENE 19:37:12 10° N
Ariane Rocket 3.1 19:28:06 12° SE 19:32:43 54° ENE 19:37:41 10° N
H-2A R/B 2.2 19:29:08 10° S 19:34:07 72° WSW 19:39:18 10° NNW
Cosmos 1269 Rocket 4.2 19:30:47 10° NNW 19:36:02 56° ENE 19:39:33 20° SE
USA 116 4.4 19:32:44 10° N 19:36:19 55° WNW 19:40:20 10° SSW
Nadezhda 4 Rocket 4.0 19:31:28 10° N 19:37:37 87° W 19:43:45 10° S
KORONAS-FOTON 3.7 19:33:45 10° N 19:37:43 79° E 19:41:32 11° SSE
Cosmos 1626 2.7 19:37:56 10° N 19:41:24 37° ENE 19:42:02 34° E
Cosmos 2263 Rocket 4.5 19:37:42 10° W 19:42:11 24° NW 19:46:44 10° N
USA 186 1.6 19:42:35 27° SSE 19:44:10 73° ENE 19:47:28 10° N
MetOp-A 4.2 19:40:20 18° SE 19:44:15 55° ENE 19:49:30 10° N
COSMOS 2406 3.5 19:39:33 10° NNW 19:45:05 50° NE 19:47:55 27° ESE
Cosmos 1844 Rocket 2.9 19:40:24 10° SSW 19:45:57 75° WNW 19:51:35 10° NNE
ISS -2.9 19:43:06 10° W 19:46:22 46° N 19:47:46 28° NE
Cosmos 2278 Rocket 3.2 19:45:38 10° SSE 19:51:32 26° E 19:55:03 10° NE
Lacrosse 4 Rocket 2.7 19:49:04 10° N 19:52:24 24° NE 19:52:52 23° NE
IRS-1A Rocket 4.3 19:47:47 11° SSE 19:53:32 81° ENE 19:59:23 10° NNW
Cosmos 1844 3.8 19:47:56 10° SSW 19:53:38 80° WNW 19:59:18 10° NNE
Meteor 1-22 Rocket 4.5 19:49:38 10° SSE 19:55:20 51° E 20:01:12 10° NNE
Meteor 2-5 Rocket 3.7 19:50:08 10° N 19:55:51 78° ENE 20:00:46 15° SSE
NOSS 3-2 (C) 4.4 19:48:34 10° NW 19:56:01 67° SW 20:03:38 13° SSE
Cosmos 2034 Rocket 4.3 19:49:50 10° SSW 19:56:10 72° W 20:02:32 10° N
Exosat Rocket 3.4 19:52:45 10° SSW 19:58:07 88° ESE 20:03:10 10° NNE
Meteor 1-24 Rocket 3.7 19:52:37 10° N 19:58:09 64° ENE 20:01:37 24° SSE
Okean 1 Rocket 3.0 19:55:57 10° S 20:00:27 86° E 20:04:58 10° N
NOSS 3-4 (A) 3.3 19:55:08 10° SSW 20:00:57 63° SE 20:07:10 10° NE
NOSS 3-4 (C) 3.3 19:55:15 10° SSW 20:01:03 62° SE 20:07:16 10° NE
SL-14 R/B 3.3 19:57:30 10° N 20:01:24 56° ENE 20:01:55 51° ESE
Meteor 2-13 Rocket 4.4 19:55:29 10° N 20:01:40 86° W 20:07:49 10° S
Resurs 01 Rocket 2.4 20:03:26 34° ENE 20:03:28 34° ENE 20:07:29 10° N
Cosmos 1766 3.2 20:05:43 10° S 20:09:38 84° W 20:13:37 10° N
Cosmos 1833 Rocket 2.8 20:04:37 10° NNW 20:10:13 57° ENE 20:11:54 41° ESE
Cosmos 2251 Rocket 4.2 20:08:10 10° N 20:13:08 36° ENE 20:13:44 35° ENE
Abrixas rocket 3.7 20:11:36 10° W 20:13:27 25° SW 20:13:27 25° SW
CENTAUR R/B 3.7 20:06:52 10° NW 20:14:47 58° WSW 20:22:00 15° SSE
CREW DRAGON DEMO-1 DEB 4.5 20:13:51 10° W 20:16:08 27° SW 20:16:08 27° SW
ARIANE 5 R/B 3.9 20:20:05 26° NE 20:20:05 26° NE 20:22:47 10° N
SPOT 3 Rocket 3.4 20:20:50 50° SE 20:22:03 68° ENE 20:27:11 10° N
ATLAS 2AS CENTAUR R/B 2.9 20:15:41 10° SSW 20:23:38 79° SE 20:31:31 10° NE
Cosmos 1634 Rocket 3.9 20:17:35 10° S 20:23:46 87° E 20:30:01 10° N
SJ-6B 3.4 20:24:09 36° SSW 20:25:17 51° W 20:29:01 10° NNW
Resurs 1-3 3.4 20:26:18 72° SE 20:26:42 82° ENE 20:31:08 10° NNW
ATLAS 3B R/B 2.7 20:20:29 10° NW 20:27:22 79° NE 20:29:50 44° SE
Cosmos 1892 Rocket 3.3 20:24:10 10° N 20:28:32 81° E 20:28:35 81° E
Cosmos 1655 Rocket 4.0 20:30:55 10° N 20:37:07 56° ENE 20:37:49 53° ESE
Cosmos 2026 Rocket 4.4 20:35:57 10° NNW 20:42:14 62° W 20:46:52 19° SSW
Cosmos 1340 Rocket 3.6 20:50:42 50° WNW 20:50:42 50° WNW 20:54:26 10° N
CZ-2C R/B 3.6 20:48:32 10° N 20:53:52 49° WNW 20:59:15 10° SW
Lacrosse 5 rocket 2.6 20:52:44 10° NW 20:56:20 40° N 20:56:20 40° N
Cosmos 2180 Rocket 4.4 20:57:17 67° SSE 20:58:07 80° E 21:04:30 10° N
MetOp-B 4.1 20:58:51 72° NNE 20:58:51 72° NNE 21:03:50 10° NNW
Cosmos 2279 Rocket 4.0 20:57:30 36° SSW 21:00:14 81° W 21:06:33 10° N
OBJECT-B 3.3 21:02:00 22° WNW 21:02:00 22° WNW 21:03:39 10° NW
Cosmos 2098 Rocket 3.7 20:54:49 10° N 21:01:36 82° E 21:01:45 81° ESE
Cosmos 2082 Rocket 2.1 20:57:44 10° NNW 21:03:08 79° NNE 21:03:08 79° NNE
Spot 2 Rocket 4.1 21:05:26 46° NNE 21:05:26 46° NNE 21:09:09 10° N
Terra 3.8 21:21:44 20° NNE 21:21:44 20° NNE 21:23:29 10° N
ISS -0.5 21:20:13 10° WNW 21:20:44 14° WNW 21:20:44 14° WNW
SPOT 1/Viking Rocket 4.4 21:29:22 45° N 21:29:22 45° N 21:32:55 10° NNW
Lacrosse 4 Rocket 3.6 21:27:21 10° NW 21:29:10 24° NW 21:29:10 24° NW
Cosmos 2278 Rocket 2.8 21:28:34 10° SW 21:34:07 54° WNW 21:39:40 10° NNE
Resurs 01 Rocket 3.6 21:41:00 26° WNW 21:41:00 26° WNW 21:43:53 10° NW
Cosmos 2266 Rocket 4.4 21:39:53 10° NNW 21:45:08 57° WNW 21:45:08 57° WNW
Cosmos 1833 Rocket 4.3 21:49:11 10° NW 21:53:36 26° W 21:53:36 26° W
ATLAS 2AS CENTAUR R/B 4.1 22:07:57 10° W 22:15:21 40° NNW 22:22:36 10° NE
ATLAS 3B R/B 4.2 22:11:55 10° WNW 22:17:06 26° WSW 22:17:06 26° WSW
